Time,TemperatureF,DewpointF,PressureIn,WindDirection,WindDirectionDegrees,WindSpeedMPH,WindSpeedGustMPH,Humidity,HourlyPrecipIn,Conditions,Clouds,dailyrainin,SoftwareType,DateUTC
2013-01-29 00:01:00,11.0,5.0,-100.00,WNW,290,15.0,24.0,75,-99.99,,,-99.99,,2013-01-29 07:01:00,
2013-01-29 00:11:00,11.0,5.0,-100.00,WNW,285,15.0,21.0,75,-99.99,,,-99.99,,2013-01-29 07:11:00,
2013-01-29 00:21:00,11.0,5.0,-100.00,West,280,16.0,21.0,76,-99.99,,,-99.99,,2013-01-29 07:21:00,
2013-01-29 00:31:00,11.0,5.0,-100.00,WNW,290,16.0,21.0,76,-99.99,,,-99.99,,2013-01-29 07:31:00,
2013-01-29 00:52:00,11.0,5.0,-100.00,WNW,285,14.0,21.0,75,-99.99,,,-99.99,,2013-01-29 07:52:00,
2013-01-29 01:02:00,11.0,5.0,-100.00,WNW,295,13.0,19.0,75,-99.99,,,-99.99,,2013-01-29 08:02:00,
2013-01-29 01:11:00,11.0,5.0,-100.00,WNW,295,15.0,22.0,74,-99.99,,,-99.99,,2013-01-29 08:11:00,
2013-01-29 01:21:00,11.0,4.0,-100.00,WNW,300,15.0,23.0,74,-99.99,,,-99.99,,2013-01-29 08:21:00,
2013-01-29 01:31:00,10.0,4.0,-100.00,WNW,290,12.0,20.0,76,-99.99,,,-99.99,,2013-01-29 08:31:00,
2013-01-29 01:41:00,10.0,4.0,-100.00,WNW,285,14.0,17.0,76,-99.99,,,-99.99,,2013-01-29 08:41:00,
2013-01-29 01:52:00,10.0,4.0,-100.00,WNW,295,12.0,17.0,76,-99.99,,,-99.99,,2013-01-29 08:52:00,
2013-01-29 02:01:00,9.0,3.0,-100.00,WNW,295,12.0,14.0,76,-99.99,,,-99.99,,2013-01-29 09:01:00,
2013-01-29 02:11:00,9.0,3.0,-100.00,WNW,295,12.0,14.0,76,-99.99,,,-99.99,,2013-01-29 09:11:00,
2013-01-29 02:21:00,8.0,2.0,-100.00,WNW,295,12.0,17.0,76,-99.99,,,-99.99,,2013-01-29 09:21:00,
2013-01-29 02:31:00,8.0,2.0,-100.00,WNW,295,14.0,17.0,77,-99.99,,,-99.99,,2013-01-29 09:31:00,
2013-01-29 02:42:00,7.0,2.0,-100.00,NW,310,14.0,18.0,77,-99.99,,,-99.99,,2013-01-29 09:42:00,
2013-01-29 02:51:00,7.0,2.0,-100.00,NW,310,14.0,17.0,79,-99.99,,,-99.99,,2013-01-29 09:51:00,
2013-01-29 03:01:00,7.0,2.0,-100.00,NW,320,14.0,20.0,79,-99.99,,,-99.99,,2013-01-29 10:01:00,
2013-01-29 03:11:00,7.0,2.0,-100.00,NW,320,13.0,19.0,80,-99.99,,,-99.99,,2013-01-29 10:11:00,
2013-01-29 03:21:00,7.0,2.0,-100.00,NW,320,15.0,17.0,80,-99.99,,,-99.99,,2013-01-29 10:21:00,
2013-01-29 03:32:00,7.0,3.0,-100.00,NW,320,12.0,17.0,81,-99.99,,,-99.99,,2013-01-29 10:32:00,
2013-01-29 03:41:00,8.0,3.0,-100.00,NW,320,15.0,21.0,80,-99.99,,,-99.99,,2013-01-29 10:41:00,
2013-01-29 03:51:00,8.0,3.0,-100.00,NW,320,15.0,21.0,79,-99.99,,,-99.99,,2013-01-29 10:51:00,
2013-01-29 04:01:00,8.0,3.0,-100.00,NNW,335,16.0,25.0,76,-99.99,,,-99.99,,2013-01-29 11:01:00,
2013-01-29 04:11:00,8.0,2.0,-100.00,North,355,13.0,28.0,76,-99.99,,,-99.99,,2013-01-29 11:11:00,
2013-01-29 04:21:00,8.0,2.0,-100.00,NW,325,9.0,19.0,76,-99.99,,,-99.99,,2013-01-29 11:21:00,
2013-01-29 04:32:00,7.0,2.0,-100.00,NNW,345,10.0,20.0,77,-99.99,,,-99.99,,2013-01-29 11:32:00,
2013-01-29 04:42:00,6.0,1.0,-100.00,NW,320,12.0,15.0,79,-99.99,,,-99.99,,2013-01-29 11:42:00,
2013-01-29 04:52:00,6.0,1.0,-100.00,NNW,330,9.0,14.0,79,-99.99,,,-99.99,,2013-01-29 11:52:00,
2013-01-29 05:02:00,5.0,0.0,-100.00,NW,320,7.0,10.0,80,-99.99,,,-99.99,,2013-01-29 12:02:00,
2013-01-29 05:12:00,5.0,0.0,-100.00,NNW,335,6.0,10.0,81,-99.99,,,-99.99,,2013-01-29 12:12:00,
2013-01-29 05:22:00,4.0,0.0,-100.00,North,350,7.0,10.0,82,-99.99,,,-99.99,,2013-01-29 12:22:00,
2013-01-29 05:32:00,4.0,0.0,-100.00,NNW,335,10.0,11.0,83,-99.99,,,-99.99,,2013-01-29 12:32:00,
2013-01-29 05:42:00,5.0,1.0,-100.00,WNW,300,12.0,17.0,82,-99.99,,,-99.99,,2013-01-29 12:42:00,
2013-01-29 05:52:00,8.0,2.0,-100.00,WNW,285,14.0,21.0,77,-99.99,,,-99.99,,2013-01-29 12:52:00,
2013-01-29 06:02:00,7.0,1.0,-100.00,WNW,285,12.0,20.0,76,-99.99,,,-99.99,,2013-01-29 13:02:00,
2013-01-29 06:11:00,7.0,1.0,-100.00,WNW,290,13.0,19.0,76,-99.99,,,-99.99,,2013-01-29 13:11:00,
2013-01-29 06:22:00,7.0,1.0,-100.00,West,280,17.0,25.0,75,-99.99,,,-99.99,,2013-01-29 13:22:00,
2013-01-29 06:32:00,7.0,1.0,-100.00,West,275,17.0,24.0,74,-99.99,,,-99.99,,2013-01-29 13:32:00,
2013-01-29 06:42:00,7.0,1.0,-100.00,West,280,20.0,24.0,74,-99.99,,,-99.99,,2013-01-29 13:42:00,
2013-01-29 06:52:00,7.0,0.0,-100.00,West,280,22.0,27.0,74,-99.99,,,-99.99,,2013-01-29 13:52:00,
2013-01-29 07:02:00,7.0,0.0,-100.00,West,265,21.0,29.0,74,-99.99,,,-99.99,,2013-01-29 14:02:00,
2013-01-29 07:12:00,7.0,0.0,-100.00,West,260,19.0,26.0,73,-99.99,,,-99.99,,2013-01-29 14:12:00,
2013-01-29 07:21:00,7.0,0.0,-100.00,West,265,14.0,24.0,72,-99.99,,,-99.99,,2013-01-29 14:21:00,
2013-01-29 07:33:00,7.0,0.0,-100.00,West,270,17.0,27.0,72,-99.99,,,-99.99,,2013-01-29 14:33:00,
2013-01-29 07:43:00,7.0,0.0,-100.00,West,265,17.0,23.0,71,-99.99,,,-99.99,,2013-01-29 14:43:00,
2013-01-29 07:52:00,7.0,-1.0,-100.00,West,265,18.0,24.0,70,-99.99,,,-99.99,,2013-01-29 14:52:00,
2013-01-29 08:02:00,7.0,-1.0,-100.00,West,280,21.0,30.0,69,-99.99,,,-99.99,,2013-01-29 15:02:00,
2013-01-29 08:12:00,7.0,-1.0,-100.00,West,265,19.0,30.0,68,-99.99,,,-99.99,,2013-01-29 15:12:00,
2013-01-29 08:22:00,7.0,-1.0,-100.00,West,280,23.0,29.0,68,-99.99,,,-99.99,,2013-01-29 15:22:00,
2013-01-29 08:33:00,8.0,-1.0,-100.00,West,280,26.0,34.0,68,-99.99,,,-99.99,,2013-01-29 15:33:00,
2013-01-29 08:42:00,8.0,-1.0,-100.00,West,270,22.0,30.0,68,-99.99,,,-99.99,,2013-01-29 15:42:00,
2013-01-29 08:52:00,8.0,0.0,-100.00,West,270,21.0,29.0,68,-99.99,,,-99.99,,2013-01-29 15:52:00,
2013-01-29 09:02:00,9.0,0.0,-100.00,West,265,23.0,29.0,67,-99.99,,,-99.99,,2013-01-29 16:02:00,
2013-01-29 09:12:00,9.0,0.0,-100.00,West,265,21.0,28.0,67,-99.99,,,-99.99,,2013-01-29 16:12:00,
2013-01-29 09:22:00,9.0,1.0,-100.00,West,260,21.0,27.0,67,-99.99,,,-99.99,,2013-01-29 16:22:00,
2013-01-29 09:32:00,10.0,1.0,-100.00,West,275,19.0,28.0,66,-99.99,,,-99.99,,2013-01-29 16:32:00,
2013-01-29 09:42:00,10.0,1.0,-100.00,West,265,21.0,27.0,66,-99.99,,,-99.99,,2013-01-29 16:42:00,
2013-01-29 09:52:00,11.0,1.0,-100.00,West,270,22.0,32.0,65,-99.99,,,-99.99,,2013-01-29 16:52:00,
2013-01-29 10:03:00,11.0,2.0,-100.00,West,275,20.0,28.0,66,-99.99,,,-99.99,,2013-01-29 17:03:00,
2013-01-29 10:12:00,11.0,2.0,-100.00,West,270,22.0,28.0,66,-99.99,,,-99.99,,2013-01-29 17:12:00,
2013-01-29 10:22:00,11.0,2.0,-100.00,West,280,24.0,32.0,65,-99.99,,,-99.99,,2013-01-29 17:22:00,
2013-01-29 10:32:00,12.0,3.0,-100.00,West,275,21.0,27.0,66,-99.99,,,-99.99,,2013-01-29 17:32:00,
2013-01-29 10:42:00,12.0,3.0,-100.00,West,270,19.0,29.0,65,-99.99,,,-99.99,,2013-01-29 17:42:00,
2013-01-29 10:52:00,13.0,3.0,-100.00,West,275,21.0,32.0,65,-99.99,,,-99.99,,2013-01-29 17:52:00,
2013-01-29 11:03:00,13.0,4.0,-100.00,West,275,24.0,31.0,65,-99.99,,,-99.99,,2013-01-29 18:03:00,
2013-01-29 11:12:00,13.0,4.0,-100.00,West,275,22.0,31.0,65,-99.99,,,-99.99,,2013-01-29 18:12:00,
2013-01-29 11:22:00,14.0,4.0,-100.00,West,280,22.0,29.0,65,-99.99,,,-99.99,,2013-01-29 18:22:00,
2013-01-29 11:33:00,14.0,4.0,-100.00,West,270,21.0,28.0,65,-99.99,,,-99.99,,2013-01-29 18:33:00,
2013-01-29 11:42:00,14.0,5.0,-100.00,West,280,22.0,28.0,64,-99.99,,,-99.99,,2013-01-29 18:42:00,
2013-01-29 11:51:00,14.0,4.0,-100.00,West,270,21.0,29.0,63,-99.99,,,-99.99,,2013-01-29 18:51:00,
2013-01-29 12:02:00,15.0,5.0,-100.00,West,270,21.0,29.0,63,-99.99,,,-99.99,,2013-01-29 19:02:00,
2013-01-29 12:12:00,16.0,6.0,-100.00,West,270,21.0,29.0,63,-99.99,,,-99.99,,2013-01-29 19:12:00,
2013-01-29 12:22:00,16.0,4.0,-100.00,WNW,285,19.0,28.0,59,-99.99,,,-99.99,,2013-01-29 19:22:00,
2013-01-29 12:32:00,16.0,4.0,-100.00,WNW,295,22.0,30.0,59,-99.99,,,-99.99,,2013-01-29 19:32:00,
2013-01-29 12:42:00,16.0,4.0,-100.00,WNW,290,21.0,27.0,58,-99.99,,,-99.99,,2013-01-29 19:42:00,
2013-01-29 12:52:00,16.0,4.0,-100.00,WNW,285,21.0,25.0,57,-99.99,,,-99.99,,2013-01-29 19:52:00,
2013-01-29 13:02:00,16.0,4.0,-100.00,WNW,285,18.0,26.0,57,-99.99,,,-99.99,,2013-01-29 20:02:00,
2013-01-29 13:12:00,16.0,3.0,-100.00,NW,310,21.0,27.0,55,-99.99,,,-99.99,,2013-01-29 20:12:00,
2013-01-29 13:22:00,16.0,2.0,-100.00,NW,315,19.0,28.0,52,-99.99,,,-99.99,,2013-01-29 20:22:00,
2013-01-29 13:33:00,15.0,1.0,-100.00,NW,320,20.0,29.0,51,-99.99,,,-99.99,,2013-01-29 20:33:00,
2013-01-29 13:42:00,15.0,1.0,-100.00,NW,320,21.0,27.0,52,-99.99,,,-99.99,,2013-01-29 20:42:00,
2013-01-29 13:53:00,15.0,1.0,-100.00,NW,320,21.0,26.0,53,-99.99,,,-99.99,,2013-01-29 20:53:00,
2013-01-29 14:03:00,15.0,1.0,-100.00,NNW,330,21.0,26.0,54,-99.99,,,-99.99,,2013-01-29 21:03:00,
2013-01-29 14:12:00,15.0,2.0,-100.00,NNW,330,19.0,26.0,55,-99.99,,,-99.99,,2013-01-29 21:12:00,
2013-01-29 14:22:00,14.0,1.0,-100.00,NNW,340,26.0,29.0,54,-99.99,,,-99.99,,2013-01-29 21:22:00,
2013-01-29 14:33:00,14.0,1.0,-100.00,NNW,345,22.0,31.0,55,-99.99,,,-99.99,,2013-01-29 21:33:00,
2013-01-29 14:42:00,15.0,1.0,-100.00,NNW,335,26.0,31.0,54,-99.99,,,-99.99,,2013-01-29 21:42:00,
2013-01-29 14:52:00,14.0,1.0,-100.00,NNW,340,27.0,31.0,54,-99.99,,,-99.99,,2013-01-29 21:52:00,
2013-01-29 15:02:00,14.0,2.0,-100.00,NNW,340,26.0,32.0,56,-99.99,,,-99.99,,2013-01-29 22:02:00,
2013-01-29 15:12:00,14.0,2.0,-100.00,NNW,340,24.0,32.0,57,-99.99,,,-99.99,,2013-01-29 22:12:00,
2013-01-29 15:22:00,14.0,2.0,-100.00,NNW,330,22.0,28.0,59,-99.99,,,-99.99,,2013-01-29 22:22:00,
2013-01-29 15:33:00,13.0,2.0,-100.00,NNW,340,21.0,28.0,59,-99.99,,,-99.99,,2013-01-29 22:33:00,
2013-01-29 15:42:00,14.0,2.0,-100.00,NNW,335,27.0,33.0,58,-99.99,,,-99.99,,2013-01-29 22:42:00,
2013-01-29 15:52:00,13.0,2.0,-100.00,NNW,340,26.0,32.0,59,-99.99,,,-99.99,,2013-01-29 22:52:00,
2013-01-29 16:02:00,13.0,2.0,-100.00,NNW,335,21.0,28.0,60,-99.99,,,-99.99,,2013-01-29 23:02:00,
2013-01-29 16:12:00,13.0,2.0,-100.00,NNW,335,24.0,29.0,61,-99.99,,,-99.99,,2013-01-29 23:12:00,
2013-01-29 16:22:00,13.0,2.0,-100.00,NNW,335,29.0,34.0,63,-99.99,,,-99.99,,2013-01-29 23:22:00,
2013-01-29 16:32:00,13.0,3.0,-100.00,NNW,330,24.0,31.0,64,-99.99,,,-99.99,,2013-01-29 23:32:00,
2013-01-29 16:42:00,12.0,3.0,-100.00,NNW,345,26.0,32.0,64,-99.99,,,-99.99,,2013-01-29 23:42:00,
2013-01-29 16:52:00,12.0,3.0,-100.00,NNW,330,22.0,29.0,66,-99.99,,,-99.99,,2013-01-29 23:52:00,
2013-01-29 17:02:00,11.0,3.0,-100.00,NNW,330,22.0,27.0,68,-99.99,,,-99.99,,2013-01-30 00:02:00,
2013-01-29 17:12:00,11.0,3.0,-100.00,NNW,330,23.0,27.0,70,-99.99,,,-99.99,,2013-01-30 00:12:00,
2013-01-29 17:22:00,11.0,4.0,-100.00,NW,325,24.0,30.0,75,-99.99,,,-99.99,,2013-01-30 00:22:00,
2013-01-29 17:32:00,10.0,4.0,-100.00,NW,320,20.0,27.0,77,-99.99,,,-99.99,,2013-01-30 00:32:00,
2013-01-29 17:52:00,9.0,5.0,-100.00,NW,310,17.0,21.0,82,-99.99,,,-99.99,,2013-01-30 00:52:00,
2013-01-29 18:02:00,9.0,5.0,-100.00,NW,315,16.0,21.0,85,-99.99,,,-99.99,,2013-01-30 01:02:00,
2013-01-29 18:11:00,9.0,6.0,-100.00,NW,310,17.0,20.0,86,-99.99,,,-99.99,,2013-01-30 01:11:00,
2013-01-29 18:22:00,8.0,6.0,-100.00,NW,305,17.0,21.0,89,-99.99,,,-99.99,,2013-01-30 01:22:00,
2013-01-29 18:32:00,8.0,6.0,-100.00,NW,305,13.0,19.0,91,-99.99,,,-99.99,,2013-01-30 01:32:00,
2013-01-29 18:42:00,8.0,6.0,-100.00,NW,305,12.0,19.0,92,-99.99,,,-99.99,,2013-01-30 01:42:00,
2013-01-29 18:52:00,7.0,6.0,-100.00,WNW,295,12.0,16.0,92,-99.99,,,-99.99,,2013-01-30 01:52:00,
2013-01-29 19:02:00,7.0,6.0,-100.00,WNW,300,11.0,15.0,93,-99.99,,,-99.99,,2013-01-30 02:02:00,
2013-01-29 19:12:00,7.0,6.0,-100.00,NW,310,13.0,18.0,93,-99.99,,,-99.99,,2013-01-30 02:12:00,
2013-01-29 19:22:00,6.0,5.0,-100.00,NW,305,12.0,17.0,94,-99.99,,,-99.99,,2013-01-30 02:22:00,
2013-01-29 19:33:00,6.0,5.0,-100.00,WNW,300,12.0,16.0,94,-99.99,,,-99.99,,2013-01-30 02:33:00,
2013-01-29 19:42:00,6.0,5.0,-100.00,WNW,300,11.0,17.0,95,-99.99,,,-99.99,,2013-01-30 02:42:00,
2013-01-29 19:52:00,6.0,5.0,-100.00,NW,310,13.0,16.0,95,-99.99,,,-99.99,,2013-01-30 02:52:00,
2013-01-29 20:03:00,7.0,6.0,-100.00,NW,305,12.0,16.0,96,-99.99,,,-99.99,,2013-01-30 03:03:00,
2013-01-29 20:11:00,7.0,6.0,-100.00,NW,305,13.0,17.0,96,-99.99,,,-99.99,,2013-01-30 03:11:00,
2013-01-29 20:22:00,7.0,7.0,-100.00,NW,315,14.0,18.0,96,-99.99,,,-99.99,,2013-01-30 03:22:00,
2013-01-29 20:32:00,7.0,6.0,-100.00,NW,315,12.0,17.0,97,-99.99,,,-99.99,,2013-01-30 03:32:00,
2013-01-29 20:51:00,7.0,7.0,-100.00,NW,315,12.0,16.0,97,-99.99,,,-99.99,,2013-01-30 03:51:00,
2013-01-29 21:02:00,7.0,7.0,-100.00,NW,310,13.0,16.0,97,-99.99,,,-99.99,,2013-01-30 04:02:00,
2013-01-29 21:11:00,7.0,7.0,-100.00,NW,310,12.0,16.0,97,-99.99,,,-99.99,,2013-01-30 04:11:00,
2013-01-29 21:22:00,7.0,7.0,-100.00,NW,305,12.0,16.0,97,-99.99,,,-99.99,,2013-01-30 04:22:00,
2013-01-29 21:32:00,7.0,7.0,-100.00,NW,310,12.0,17.0,97,-99.99,,,-99.99,,2013-01-30 04:32:00,
2013-01-29 21:52:00,7.0,7.0,-100.00,NW,305,12.0,15.0,98,-99.99,,,-99.99,,2013-01-30 04:52:00,
2013-01-29 22:03:00,7.0,7.0,-100.00,NW,305,11.0,13.0,98,-99.99,,,-99.99,,2013-01-30 05:03:00,
2013-01-29 22:12:00,8.0,7.0,-100.00,NW,310,11.0,13.0,98,-99.99,,,-99.99,,2013-01-30 05:12:00,
2013-01-29 22:22:00,8.0,7.0,-100.00,NW,310,9.0,13.0,98,-99.99,,,-99.99,,2013-01-30 05:22:00,
2013-01-29 22:32:00,8.0,7.0,-100.00,WNW,300,9.0,12.0,98,-99.99,,,-99.99,,2013-01-30 05:32:00,
2013-01-29 22:42:00,8.0,8.0,-100.00,NW,315,11.0,15.0,98,-99.99,,,-99.99,,2013-01-30 05:42:00,
2013-01-29 22:52:00,8.0,8.0,-100.00,NW,310,12.0,18.0,98,-99.99,,,-99.99,,2013-01-30 05:52:00,
2013-01-29 23:02:00,8.0,8.0,-100.00,NW,305,14.0,18.0,98,-99.99,,,-99.99,,2013-01-30 06:02:00,
2013-01-29 23:11:00,8.0,8.0,-100.00,NW,315,14.0,19.0,98,-99.99,,,-99.99,,2013-01-30 06:11:00,
2013-01-29 23:21:00,8.0,8.0,-100.00,NW,315,12.0,21.0,98,-99.99,,,-99.99,,2013-01-30 06:21:00,
2013-01-29 23:32:00,8.0,7.0,-100.00,NW,315,12.0,17.0,98,-99.99,,,-99.99,,2013-01-30 06:32:00,
2013-01-29 23:41:00,8.0,7.0,-100.00,NW,305,11.0,15.0,98,-99.99,,,-99.99,,2013-01-30 06:41:00,
2013-01-29 23:51:00,8.0,7.0,-100.00,NW,310,10.0,15.0,98,-99.99,,,-99.99,,2013-01-30 06:51:00,